197  
NZUS99 KSGF 190607  
HRRSGF  
 
HOURLY WEATHER  
NATIONAL WEATHER SERVICE SPRINGFIELD MO  
100 AM CDT FRI APR 19 2024  
   
.....SGF CWA...
 
 
 
CITY SKY/WX TMP DP RH WIND PRES REMARKS  
SPRINGFIELD CLOUDY 51 46 83 N18G24 30.13R  
6HR MIN TEMP: 51; 6HR MAX TEMP: 52; 6HR PCP: TRACE;  
 
JOPLIN MOCLDY 50 43 77 N9 30.17R  
6HR MIN TEMP: 50; 6HR MAX TEMP: 53; 6HR PCP: TRACE;  
 
WEST PLAINS CLOUDY 53 47 79 N17G25 30.08R  
6HR MIN TEMP: 53; 6HR MAX TEMP: 80;  
 
ROLLA CLOUDY 50 45 83 N13G22 30.13R  
6HR MIN TEMP: 50; 6HR MAX TEMP: 56; 6HR PCP: 0.13;  
 
OSAGE BEACH CLOUDY 50 44 80 N5 30.16R  
   
.....SURROUNDING SGF CWA...
 
 
 
CITY SKY/WX TMP DP RH WIND PRES REMARKS  
CHANUTE CLEAR 47 42 83 N6 30.20R  
PARSONS CLOUDY 50 42 74 N6 30.20R  
COFFEYVILLE MOCLDY 49 42 77 N8 30.18R  
EMPORIA CLEAR 46 34 62 N9 30.23R  
GROVE OK CLOUDY 54 48 82 N8 30.14R  
ROGERS AR CLOUDY 51 47 86 N14 30.13R  
SILOAM SPRINGS CLOUDY 52 47 83 NE10G20 30.13R  
HARRISON AR CLOUDY 53 47 79 N7 30.11R  
NEAR YELLVILLE CLOUDY 57 49 74 N9G17 30.10R  
   
.....KANSAS AND MISSOURI...
 
 
 
CITY SKY/WX TMP DP RH WIND PRES REMARKS  
KANSAS CTY INT CLEAR 44 35 70 N12 30.22R  
DOWNTOWN KC CLEAR 47 38 71 N10 30.22R  
COLUMBIA CLOUDY 49 43 80 NW9 30.16R  
SEDALIA CLOUDY 49 43 80 N8 30.18R  
ST JOSEPH CLEAR 44 36 73 N8 30.25R  
ST LOUIS CLOUDY 53 46 77 N15G24 30.09R  
SPIRIT OF STL CLOUDY 52 46 80 NW12G24 30.10R  
KIRKSVILLE CLEAR 42 37 82 NW6 30.19R  
WICHITA PTCLDY 48 35 60 N8 30.24R  
TOPEKA CLEAR 45 35 68 N7 30.24R  
OLATHE CLEAR 46 37 71 N8 30.21R  
   
.....TENNESSEE...
 
 
 
CITY SKY/WX TMP DP RH WIND PRES REMARKS  
MEMPHIS CLOUDY 69 64 84 S8 29.95F  
NASHVILLE CLOUDY 73 62 68 SW8 29.96F  
   
.....ARKANSAS....
 
 
 
CITY SKY/WX TMP DP RH WIND PRES REMARKS  
FAYETTEVILLE CLOUDY 55 46 71 VRB6 30.10R  
FT SMITH CLOUDY 59 51 75 NW12 30.06R  
LITTLE ROCK CLOUDY 74 70 87 W8 29.94R  
   
.....OKLAHOMA....
 
 
 
CITY SKY/WX TMP DP RH WIND PRES REMARKS  
TULSA CLOUDY 54 45 71 N12 30.15S  
PONCA CITY CLEAR 44 41 89 N3 30.21R  
MCALESTER CLOUDY 57 47 69 N10G23 30.10S  
OKLAHOMA CITY MOCLDY 53 41 63 NE21G29 30.15R  
   
.....IOWA.........
 
 
 
CITY SKY/WX TMP DP RH WIND PRES REMARKS  
DES MOINES PTCLDY 40 30 67 NW8 30.21R WCI 34  
QUAD CITIES CLEAR 46 37 71 NW13 30.09R  
   
.....ILLINOIS.....
 
 
 
CITY SKY/WX TMP DP RH WIND PRES REMARKS  
QUINCY CLEAR 45 42 89 NW8 30.13R  
CHICAGO CLOUDY 50 46 86 NW8G20 29.98F  
 
 
 
CLICK HERE TO GO TO PREVIOUS BULLETINS.

The Nexlab MO Page
The Nexlab KS Page Main Text Page